Flag for U.S.A. Weather past 2 weeks in Bridgeport, Connecticut, U.S.A.

Now
36 °F

Clear.


Feels Like: 31 °F
Forecast: 35 / 58 °F
Wind: 6 mph from West

Location: Sikorsky Memorial Airport

Current Time: Apr 25, 2015 at 1:20:53 AM

Latest Report: Apr 25, 2015 at 12:52 AM


Visibility: 10 mi

Pressure: 29.90 "Hg

Humidity: 57%

Dew point: 22 °F

Location of BridgeportLocation

Historic Weather in Bridgeport — Graph

°F

Bridgeport temperature yesterday

Maximum temperature yesterday: 46 °F (at 12:52 PM)
Minimum temperature yesterday: 39 °F (at 4:52 AM)
Average temperature yesterday: 42 °F

Past Weeks' High & Low Weather Summary

 TemperatureHumidityPressure
High73 °F (Apr 18, 2:52 PM)100% (Apr 10, 2:52 AM)30.50 "Hg (Apr 10, 2:52 AM)
Low35 °F (Apr 12, 6:52 AM)13% (Apr 15, 3:52 PM)29.55 "Hg (Apr 22, 3:52 PM)
Average51 °F62%30.00 "Hg
* Reported Apr 9 11:52 PM — Apr 24 11:52 PM, Bridgeport, Weather by CustomWeather, © 2015

Note: Actual official high and low records may vary slightly from our data, if they occured in-between our weather recording intervals... More about our weather records

Advertising

Bridgeport weather history for previous 24 hours

 ConditionsComfort  
Time TempWeatherWind HumidityBarometerVisibility
11:52 PM
Fri, Apr 24
39 °FClear.8 mph48%29.90 "Hg10 mi
10:52 PM39 °FClear.13 mph48%29.90 "Hg10 mi
9:52 PM40 °FClear.10 mph47%29.90 "Hg10 mi
8:52 PM42 °FOvercast.15 mph43%29.89 "Hg10 mi
6:52 PM44 °FOvercast.15 mph38%29.85 "Hg10 mi
5:52 PM45 °FOvercast.17 mph37%29.84 "Hg10 mi
4:52 PM46 °FOvercast.17 mph37%29.83 "Hg10 mi
3:52 PM46 °FOvercast.20 mph38%29.82 "Hg10 mi
2:52 PM46 °FOvercast.17 mph37%29.80 "Hg10 mi
1:52 PM46 °FOvercast.15 mph35%29.80 "Hg10 mi
12:52 PM46 °FOvercast.16 mph37%29.82 "Hg10 mi
11:52 AM45 °FPartly sunny.14 mph37%29.82 "Hg10 mi
10:52 AM45 °FPartly sunny.14 mph38%29.83 "Hg10 mi
9:52 AM43 °FPartly sunny.14 mph43%29.83 "Hg10 mi
8:52 AM42 °FOvercast.14 mph45%29.83 "Hg10 mi
7:52 AM41 °FSunny.17 mph47%29.83 "Hg10 mi
6:52 AM39 °FClear.10 mph53%29.83 "Hg10 mi
5:52 AM39 °FPassing clouds.9 mph50%29.82 "Hg10 mi
4:52 AM39 °FOvercast.12 mph48%29.80 "Hg10 mi
3:52 AM40 °FPassing clouds.13 mph47%29.79 "Hg10 mi
2:52 AM41 °FMostly cloudy.13 mph45%29.78 "Hg10 mi
1:52 AM42 °FOvercast.12 mph45%29.79 "Hg10 mi
Weather by CustomWeather, © 2015

See weather overviewHow to use our weather pages